Content
SEND FEEDBACK

Daily
Averages
Monthly
Summary
United States of America

ACHANG BAY, GUAM


Home > North America > United States > Guam
Elevation: 30 feet     Latitude: 13 16N     Longitude: 144 45E

WEATHER
 
SELECT A DAY
Number of Records: 341,794;   Date Range: 1/1/95 - 7/23/14
 
SHARE

PRINT THIS DATA

[ ← Previous Day ]
WEATHER ALMANAC - APRIL 18, 2013
[ Next Day → ]
[ °C ]   °F
Weather ElementAverageHighLow
Temperature80.7 °F84.7 °F (12:55 pm)74.7 °F (4:55 am)
Dewpoint73.6 °F75.2 °F (6:43 am)71.2 °F (4:55 am)
Humidity79.3 %94 % (11:47 pm)69 % (11:55 am)
Barometer29.84 in29.88 in (8:28 am)29.79 in (2:55 pm)
Wind Speed10.1 mph12.7 mph (1:55 pm)
Wind Gust18.4 mph (11:55 am)
Weather ElementAverage
Visibility10 mi
Wind DirectionENE (75.4 °)

Weather ElementTotal
Precipitation---
Cooling Degree Days14.7 (Base 65)
Growing Degree Days29.7 (Base 50)
Averaged from 57 records on April 18, 2013
WEATHER CONDITIONS BREAKOUT
WIND DIRECTION BREAKOUT
WEATHER BY HOUR - APRIL 18, 2013
[ °C ]   °F
Local TimeTemperatureDewpointHumidityBarometerVisibilityWind DirectionWind SpeedGust SpeedPrecipitationEventsConditions
12:42 AM77.0 °F73.4 °F89 %29.85 in10.0 miENE (70°)8.1 mphScattered Clouds
12:55 AM76.8 °F72.5 °F86 %29.84 in10.0 miEast (80°)9.2 mphPartly Cloudy
1:55 AM77.0 °F72.7 °F86 %29.83 in10.0 miEast (80°)8.1 mphClear
2:55 AM77.0 °F72.3 °F85 %29.82 in10.0 miEast (90°)6.9 mphClear
3:55 AM76.8 °F72.5 °F86 %29.81 in10.0 miEast (90°)5.8 mphClear
4:55 AM74.7 °F71.2 °F89 %29.82 in10.0 miEast (90°)6.9 mphClear
5:55 AM76.1 °F72.7 °F89 %29.84 in10.0 miENE (60°)6.9 mphClear
6:40 AM78.8 °F73.4 °F83 %29.84 in10.0 miNE (40°)9.2 mphRainLight Rain
6:43 AM78.8 °F75.2 °F89 %29.84 in10.0 miNE (40°)9.2 mphRainLight Rain
6:50 AM78.8 °F75.2 °F89 %29.84 in10.0 miNE (40°)10.4 mphMostly Cloudy
6:55 AM78.3 °F74.3 °F88 %29.84 in10.0 miNE (40°)10.4 mph0.00 inMostly Cloudy
7:29 AM78.8 °F73.4 °F83 %29.86 in10.0 miENE (60°)9.2 mphMostly Cloudy
7:51 AM78.8 °F73.4 °F83 %29.86 in10.0 miENE (70°)9.2 mphMostly Cloudy
7:55 AM80.1 °F73.2 °F80 %29.87 in10.0 miNE (50°)10.4 mphMostly Cloudy
8:10 AM80.6 °F73.4 °F79 %29.87 in10.0 miENE (70°)10.4 mphScattered Clouds
8:12 AM80.6 °F73.4 °F79 %29.87 in10.0 miENE (60°)10.4 mphMostly Cloudy
8:25 AM80.6 °F73.4 °F79 %29.87 in10.0 miNE (50°)10.4 mphScattered Clouds
8:28 AM80.6 °F73.4 °F79 %29.88 in10.0 miNE (50°)10.4 mphMostly Cloudy
8:43 AM82.4 °F73.4 °F74 %29.87 in10.0 miEast (80°)11.5 mphMostly Cloudy
8:55 AM82.8 °F73.4 °F73 %29.88 in10.0 miENE (70°)10.4 mphScattered Clouds
9:52 AM82.4 °F73.4 °F74 %29.87 in10.0 miEast (90°)11.5 mphMostly Cloudy
9:55 AM83.1 °F73.4 °F72 %29.87 in10.0 miEast (100°)10.4 mphMostly Cloudy
10:46 AM84.2 °F73.4 °F70 %29.86 in10.0 miENE (70°)11.5 mphScattered Clouds
10:55 AM84.6 °F74.3 °F71 %29.86 in10.0 miENE (70°)11.5 mphScattered Clouds
11:05 AM84.2 °F73.4 °F70 %29.85 in10.0 miEast (90°)10.4 mphMostly Cloudy
11:08 AM84.2 °F73.4 °F70 %29.86 in10.0 miEast (90°)10.4 mphScattered Clouds
11:09 AM84.2 °F73.4 °F70 %29.86 in10.0 miEast (90°)9.2 mphMostly Cloudy
11:25 AM84.2 °F75.2 °F74 %29.85 in10.0 miENE (70°)10.4 mphScattered Clouds
11:29 AM84.2 °F75.2 °F74 %29.85 in10.0 miEast (80°)10.4 mphMostly Cloudy
11:31 AM84.2 °F75.2 °F74 %29.85 in10.0 miENE (70°)11.5 mphScattered Clouds
11:32 AM84.2 °F75.2 °F74 %29.85 in10.0 miENE (70°)11.5 mphMostly Cloudy
11:35 AM84.2 °F73.4 °F70 %29.85 in10.0 miENE (70°)11.5 mphScattered Clouds
11:55 AM84.6 °F73.6 °F69 %29.85 in10.0 miENE (70°)11.5 mph18.4 mphScattered Clouds
12:55 PM84.7 °F73.9 °F70 %29.83 in10.0 miENE (70°)11.5 mphMostly Cloudy
1:55 PM84.0 °F73.8 °F71 %29.80 in10.0 miENE (70°)12.7 mphClear
2:55 PM84.2 °F73.8 °F71 %29.79 in10.0 miENE (70°)10.4 mphScattered Clouds
2:56 PM84.2 °F73.4 °F70 %29.79 in10.0 miENE (60°)11.5 mphMostly Cloudy
3:10 PM84.2 °F73.4 °F70 %29.79 in10.0 miEast (80°)12.7 mphScattered Clouds
3:34 PM84.2 °F75.2 °F74 %29.79 in10.0 miENE (70°)12.7 mph16.1 mphMostly Cloudy
3:43 PM84.2 °F73.4 °F70 %29.79 in10.0 miEast (90°)11.5 mphScattered Clouds
3:55 PM83.3 °F73.6 °F72 %29.79 in10.0 miEast (90°)11.5 mphScattered Clouds
4:55 PM82.0 °F73.9 °F76 %29.79 in10.0 miEast (80°)11.5 mphPartly Cloudy
5:55 PM80.8 °F73.6 °F79 %29.81 in10.0 miENE (70°)11.5 mphScattered Clouds
6:55 PM79.2 °F73.0 °F81 %29.83 in10.0 miEast (80°)8.1 mphClear
7:55 PM79.0 °F72.9 °F81 %29.85 in10.0 miEast (80°)8.1 mphPartly Cloudy
8:37 PM78.8 °F73.4 °F83 %29.86 in10.0 miEast (80°)6.9 mphMostly Cloudy
8:47 PM78.8 °F73.4 °F83 %29.86 in10.0 miEast (90°)9.2 mphMostly Cloudy
8:55 PM79.3 °F73.6 °F82 %29.87 in10.0 miEast (100°)9.2 mphMostly Cloudy
9:12 PM78.8 °F73.4 °F83 %29.87 in10.0 miENE (70°)8.1 mphMostly Cloudy
9:21 PM78.8 °F73.4 °F83 %29.87 in10.0 miEast (80°)11.5 mphMostly Cloudy
9:55 PM78.8 °F73.8 °F84 %29.88 in10.0 miEast (80°)9.2 mphPartly Cloudy
10:55 PM78.3 °F73.6 °F85 %29.87 in10.0 miENE (70°)9.2 mphPartly Cloudy
11:36 PM78.8 °F75.2 °F89 %29.86 in10.0 miEast (90°)8.1 mphLight Drizzle
11:47 PM77.0 °F75.2 °F94 %29.86 in10.0 miEast (100°)12.7 mphLight Drizzle
11:50 PM77.0 °F73.4 °F89 %29.86 in10.0 miESE (110°)12.7 mphMostly Cloudy
11:52 PM77.0 °F73.4 °F89 %29.86 in10.0 miEast (100°)10.4 mphMostly Cloudy
11:55 PM76.8 °F73.8 °F90 %29.86 in10.0 miESE (110°)9.2 mph0.00 inOvercast
Hourly data recorded from PGUA, located miles away from Achang Bay, Guam







STORIES FROM OUR PARTNERS